GW5381 Weather Reports


time (UTC)temp
C
wind
direction
speed
KPH
gust
KPH
rain 1hr
cm
rain 24hr
cm
rain mn
cm
humidity
%
barometer
mb
20260503200750 17 121 1.6 6.4 0.00 0.00 0.00 35 1016.3
20260503200245 17 128 1.6 6.4 0.00 0.00 0.00 33 1016.4
20260503195743 16 277 3.2 12.9 0.00 0.00 0.00 36 1016.6
20260503195239 16 62 4.8 6.4 0.00 0.00 0.00 35 1016.5
20260503194737 16 106 1.6 4.8 0.00 0.00 0.00 34 1016.9
20260503194232 16 90 3.2 22.5 0.00 0.00 0.00 36 1016.8
20260503193729 17 81 6.4 11.3 0.00 0.00 0.00 35 1016.9
20260503193225 17 111 1.6 6.4 0.00 0.00 0.00 35 1017.1
20260503192721 17 97 3.2 3.2 0.00 0.00 0.00 32 1017.3
20260503192216 18 333 6.4 16.1 0.00 0.00 0.00 32 1017.3
20260503191713 17 342 4.8 9.7 0.00 0.00 0.00 35 1017.3
20260503191211 18 264 8.0 9.7 0.00 0.00 0.00 31 1017.5
20260503190707 18 221 0.0 4.8 0.00 0.00 0.00 38 1017.7
20260503190204 18 108 0.0 6.4 0.00 0.00 0.00 35 1017.5
20260503185701 17 103 3.2 11.3 0.00 0.00 0.00 35 1017.5
20260503185156 17 269 1.6 9.7 0.00 0.00 0.00 37 1017.7
20260503184651 16 131 1.6 4.8 0.00 0.00 0.00 36 1017.9
20260503184147 16 119 3.2 4.8 0.00 0.00 0.00 35 1018.0
20260503183643 16 110 3.2 3.2 0.00 0.00 0.00 35 1018.1
20260503183141 16 291 4.8 11.3 0.00 0.00 0.00 34 1018.2
20260503182640 16 112 1.6 3.2 0.00 0.00 0.00 36 1018.0
20260503182139 16 332 3.2 14.5 0.00 0.00 0.00 36 1018.2
20260503181635 17 213 3.2 3.2 0.00 0.00 0.00 35 1018.3
20260503181131 17 72 3.2 12.9 0.00 0.00 0.00 35 1018.5
20260503180628 17 110 4.8 12.9 0.00 0.00 0.00 33 1018.5
20260503180126 17 135 8.0 11.3 0.00 0.00 0.00 34 1018.5
20260503175623 17 90 1.6 4.8 0.00 0.00 0.00 36 1018.4
20260503175120 16 117 1.6 11.3 0.00 0.00 0.00 38 1018.5
20260503174616 17 292 8.0 17.7 0.00 0.00 0.00 36 1018.7
20260503174114 16 85 0.0 6.4 0.00 0.00 0.00 39 1018.8
20260503173609 17 115 1.6 4.8 0.00 0.00 0.00 37 1018.8
20260503173105 16 324 9.7 14.5 0.00 0.00 0.00 35 1018.7
20260503172602 16 150 1.6 4.8 0.00 0.00 0.00 42 1018.9
20260503172100 16 203 6.4 11.3 0.00 0.00 0.00 37 1019.3
20260503171556 16 118 3.2 16.1 0.00 0.00 0.00 38 1019.3
20260503171053 16 110 8.0 17.7 0.00 0.00 0.00 34 1019.3
20260503170549 15 136 1.6 3.2 0.00 0.00 0.00 38 1019.3
20260503150942 12 127 0.0 6.4 0.00 0.00 0.00 45 1020.6
20260503150439 12 108 4.8 6.4 0.00 0.00 0.00 44 1020.7
20260503131332 7 128 0.0 4.8 0.00 0.00 0.00 59 1020.6
20260503130829 7 114 0.0 3.2 0.00 0.00 0.00 59 1020.6
20260503130327 7 99 1.6 3.2 0.00 0.00 0.00 61 1020.8
20260503110720 3 124 0.0 3.2 0.00 0.00 0.00 71 1020.1
20260503110217 3 80 1.6 3.2 0.00 0.00 0.00 71 1020.0
20260503100138 3 123 0.0 0.0 0.00 0.00 0.00 72 1019.4
20260503081532 3 131 0.0 0.0 0.00 0.00 0.00 76 1019.4
20260503081030 3 130 0.0 0.0 0.00 0.00 0.00 76 1019.3
20260503080526 3 130 0.0 0.0 0.00 0.00 0.00 75 1019.3
20260503072459 2 126 0.0 0.0 0.00 0.00 0.00 79 1019.1
20260503071956 2 126 0.0 0.0 0.00 0.00 0.00 78 1019.1
20260503071453 2 126 0.0 0.0 0.00 0.00 0.00 79 1019.2
20260503070949 2 126 0.0 0.0 0.00 0.00 0.00 80 1019.2
20260503070446 2 126 0.0 0.0 0.00 0.00 0.00 80 1019.3
20260503054900 3 126 0.0 0.0 0.00 0.00 0.00 73 1019.5
20260503054356 3 126 0.0 0.0 0.00 0.00 0.00 71 1019.6
20260503053855 3 126 0.0 0.0 0.00 0.00 0.00 71 1019.5
20260503053352 3 126 0.0 0.0 0.00 0.00 0.00 71 1019.5
20260503052848 3 126 0.0 0.0 0.00 0.00 0.00 70 1019.5
20260503052345 3 126 0.0 0.0 0.00 0.00 0.00 71 1019.5
20260503051842 3 126 0.0 0.0 0.00 0.00 0.00 70 1019.6
20260503051338 3 126 0.0 0.0 0.00 0.00 0.00 71 1019.5
20260503050835 3 126 0.0 0.0 0.00 0.00 0.00 70 1019.5
20260503050331 3 126 0.0 0.0 0.00 0.00 0.00 72 1019.6
20260503045829 4 126 0.0 0.0 0.00 0.00 0.00 71 1019.6
20260503045327 4 126 0.0 0.0 0.00 0.00 0.00 69 1019.7
20260503044823 4 126 0.0 0.0 0.00 0.00 0.00 69 1019.5
20260503044320 4 126 0.0 0.0 0.00 0.00 0.00 67 1019.6
20260503043817 4 126 0.0 0.0 0.00 0.00 0.00 69 1019.6
20260503043314 4 126 0.0 0.0 0.00 0.00 0.00 68 1019.4
20260503042810 4 126 0.0 0.0 0.00 0.00 0.00 68 1019.6
20260503042307 4 126 0.0 0.0 0.00 0.00 0.00 68 1019.6
20260503041803 4 126 0.0 0.0 0.00 0.00 0.00 67 1019.6
20260503041300 4 126 0.0 0.0 0.00 0.00 0.00 67 1019.5
20260503040758 4 126 0.0 0.0 0.00 0.00 0.00 67 1019.6
20260503040255 5 126 0.0 0.0 0.00 0.00 0.00 66 1019.6
20260503035752 5 126 0.0 0.0 0.00 0.00 0.00 66 1019.8
20260503035249 5 126 0.0 0.0 0.00 0.00 0.00 65 1019.7
20260503034746 5 126 0.0 0.0 0.00 0.00 0.00 65 1019.8
20260503034243 5 126 0.0 0.0 0.00 0.00 0.00 65 1019.8
20260503033741 5 126 0.0 0.0 0.00 0.00 0.00 65 1019.8
20260503033238 4 126 0.0 0.0 0.00 0.00 0.00 66 1019.8
20260503032736 4 126 0.0 0.0 0.00 0.00 0.00 68 1019.8
20260503032235 4 126 0.0 0.0 0.00 0.00 0.00 69 1019.6
20260503031732 4 126 0.0 0.0 0.00 0.00 0.00 66 1019.8
20260503031230 5 126 0.0 0.0 0.00 0.00 0.00 64 1019.6
20260503030725 5 126 0.0 0.0 0.00 0.00 0.00 64 1019.7
20260503030222 5 126 0.0 0.0 0.00 0.00 0.00 64 1019.6
20260503025719 5 126 0.0 0.0 0.00 0.00 0.00 65 1019.7
20260503025217 5 126 0.0 0.0 0.00 0.00 0.00 65 1019.7
20260503024713 5 126 0.0 0.0 0.00 0.00 0.00 64 1019.5
20260503024211 5 126 0.0 0.0 0.00 0.00 0.00 63 1019.5
20260503023707 5 126 0.0 0.0 0.00 0.00 0.00 63 1019.5
20260503023203 6 126 0.0 0.0 0.00 0.00 0.00 61 1019.5
20260503022659 6 126 0.0 0.0 0.00 0.00 0.00 60 1019.5
20260503022159 6 126 0.0 0.0 0.00 0.00 0.00 59 1019.4
20260503021656 6 125 0.0 0.0 0.00 0.00 0.00 58 1019.6
20260503021153 6 124 0.0 0.0 0.00 0.00 0.00 56 1019.4
20260503020650 7 121 0.0 0.0 0.00 0.00 0.00 56 1019.3
20260503020147 7 130 0.0 1.6 0.00 0.00 0.00 56 1019.5
20260503015644 7 124 0.0 1.6 0.00 0.00 0.00 56 1019.3
20260503015141 7 127 0.0 0.0 0.00 0.00 0.00 56 1019.1
20260503014637 7 132 1.6 3.2 0.00 0.00 0.00 55 1019.1
20260503014135 7 126 0.0 3.2 0.00 0.00 0.00 54 1018.9
20260503013632 7 122 1.6 3.2 0.00 0.00 0.00 54 1019.1
20260503013130 7 125 0.0 1.6 0.00 0.00 0.00 53 1019.0
20260503012627 7 122 0.0 1.6 0.00 0.00 0.00 53 1018.9
20260503012123 7 121 0.0 3.2 0.00 0.00 0.00 52 1018.8
20260503011620 7 134 3.2 4.8 0.00 0.00 0.00 52 1018.7
20260503011117 8 117 1.6 1.6 0.00 0.00 0.00 51 1018.8
20260503010613 8 140 1.6 1.6 0.00 0.00 0.00 50 1018.7
20260503010111 8 127 3.2 3.2 0.00 0.00 0.00 49 1018.6
20260503005608 8 131 1.6 1.6 0.00 0.00 0.00 49 1018.5
20260503005105 8 118 0.0 4.8 0.00 0.00 0.00 48 1018.4
20260503004601 8 125 1.6 3.2 0.00 0.00 0.00 47 1018.5
20260503004100 8 129 1.6 4.8 0.00 0.00 0.00 47 1018.4
20260503003555 8 128 4.8 4.8 0.00 0.00 0.00 47 1018.5
20260503003053 9 117 0.0 3.2 0.00 0.00 0.00 47 1018.3
20260503002550 9 125 3.2 4.8 0.00 0.00 0.00 46 1018.1
20260503002047 9 128 3.2 3.2 0.00 0.00 0.00 44 1018.1
20260503001543 9 124 3.2 4.8 0.00 0.00 0.00 44 1018.2
20260503001040 10 109 0.0 4.8 0.00 0.00 0.00 44 1018.0
20260503000538 10 118 1.6 4.8 0.00 0.00 0.00 43 1017.9
20260503000035 10 133 3.2 9.7 0.00 0.00 0.00 42 1017.9
20260502235531 10 122 4.8 11.3 0.00 0.00 0.00 41 1017.9
20260502235029 11 106 1.6 6.4 0.00 0.00 0.00 41 1017.9
20260502234525 11 91 3.2 6.4 0.00 0.00 0.00 40 1017.9
20260502234024 11 128 3.2 9.7 0.00 0.00 0.00 40 1017.7
20260502233523 11 158 8.0 11.3 0.00 0.00 0.00 39 1017.8
20260502233021 11 90 0.0 1.6 0.00 0.00 0.00 39 1017.8
20260502232517 11 128 1.6 6.4 0.00 0.00 0.00 38 1017.8
20260502232014 12 105 3.2 9.7 0.00 0.00 0.00 36 1017.8
20260502231511 12 125 0.0 1.6 0.00 0.00 0.00 37 1017.8
20260502231009 11 89 6.4 6.4 0.00 0.00 0.00 37 1017.7
20260502230507 11 95 3.2 4.8 0.00 0.00 0.00 40 1017.8
20260502230005 11 114 1.6 4.8 0.00 0.00 0.00 39 1017.7
20260502225500 10 109 3.2 12.9 0.00 0.00 0.00 40 1017.7
20260502224958 11 93 6.4 12.9 0.00 0.00 0.00 40 1017.7
20260502224454 11 105 3.2 14.5 0.00 0.00 0.00 40 1017.7
20260502223951 11 112 4.8 12.9 0.00 0.00 0.00 39 1017.7
20260502223449 11 101 8.0 9.7 0.00 0.00 0.00 38 1017.7
20260502222946 11 86 6.4 11.3 0.00 0.00 0.00 37 1017.4
20260502222444 12 122 1.6 6.4 0.00 0.00 0.00 38 1017.5
20260502221944 12 122 1.6 6.4 0.00 0.00 0.00 37 1017.4
20260502221441 12 90 6.4 11.3 0.00 0.00 0.00 37 1017.3
20260502220938 12 108 4.8 9.7 0.00 0.00 0.00 37 1017.4
20260502220434 12 100 3.2 12.9 0.00 0.00 0.00 37 1017.3
20260502215931 12 118 6.4 9.7 0.00 0.00 0.00 37 1017.3
20260502215428 12 133 3.2 4.8 0.00 0.00 0.00 38 1017.4
20260502214925 13 110 6.4 12.9 0.00 0.00 0.00 35 1017.2
20260502214422 13 50 3.2 11.3 0.00 0.00 0.00 36 1017.1
20260502213919 13 87 6.4 14.5 0.00 0.00 0.00 35 1017.2
20260502213416 12 118 4.8 4.8 0.00 0.00 0.00 38 1017.1
20260502212915 12 124 3.2 4.8 0.00 0.00 0.00 38 1017.1
20260502212413 13 122 0.0 4.8 0.00 0.00 0.00 35 1017.1
20260502211910 13 134 3.2 9.7 0.00 0.00 0.00 35 1017.2
20260502211410 12 90 8.0 11.3 0.00 0.00 0.00 38 1017.1
20260502210908 12 80 6.4 16.1 0.00 0.00 0.00 36 1017.1
20260502210405 11 129 4.8 16.1 0.00 0.00 0.00 37 1017.3
20260502205902 11 112 0.0 6.4 0.00 0.00 0.00 39 1017.2
20260502205358 12 84 6.4 6.4 0.00 0.00 0.00 38 1017.2
20260502204856 12 95 6.4 12.9 0.00 0.00 0.00 36 1017.2
20260502204353 13 128 4.8 12.9 0.00 0.00 0.00 34 1017.1
20260502203850 13 99 6.4 11.3 0.00 0.00 0.00 36 1017.1
20260502203348 13 92 4.8 4.8 0.00 0.00 0.00 36 1017.2
20260502202843 13 118 3.2 9.7 0.00 0.00 0.00 34 1017.2
20260502202341 13 166 8.0 12.9 0.00 0.00 0.00 37 1017.4
20260502201838 13 127 0.0 4.8 0.00 0.00 0.00 34 1017.2
20260502201334 12 126 1.6 6.4 0.00 0.00 0.00 39 1017.4